Weather in Sarapulka

Russia / Novosibirsk Oblast     55°09′33″N   83°44′52″E
temp.,
°C
wind,
m/s
gust,
m/s
humid.,
%
clouds,
%
prec.,
mm/h
press.,
hPa
HPBL,
m
28 february, sun
sun2801:00−28sw3410083 0.0 103959
04:00−30ssw339873 0.0 103935
07:00−30s239763 0.0 103924
10:00−27s369558 0.0 1038181
13:00−21sse469166 0.0 1035336
16:00−16sse468877 0.0 1033477
19:00−17se339289 0.0 102946
22:00−16se3796100 0.1 1027192
1 march, mon
mon101:00−14se3796100 0.4 1024217
04:00−12ese4795100 0.3 1020220
07:00−10se4895100 0.9 1016335
10:00−8se5895100 1.1 1013494
13:00−5se5795100 2.0 1010532
16:00−3ese5898100 3.6 1008415
19:00−1w1798100 9.0 1007394
22:00−8nne5895100 1.2 1007184
2 march, tue
tue201:00−11nne4795100 1.9 1009259
04:00−13n369595 0.2 1011227
07:00−16nne239792 0.4 101472
10:00−17nne229687 0.1 1016122
13:00−14wnw129092 0.2 1017293
16:00−11w2387100 0.2 1018473
19:00−12sw1296100 0.4 101834
22:00−15ssw019796 0.1 101820
3 march, wed
wed301:00−15sse119693 0.2 101720
04:00−15sse1197100 0.1 101620
07:00−15e119696 0.3 101620
10:00−13ene1194100 0.1 101694
13:00−10e1189100 0.3 1016317
16:00−9nw0189100 0.3 1017312
19:00−10sw3595100 0.6 1019143
22:00−14sw339682 0.1 102144
4 march, thu
thu401:00−16ssw349785 0.2 102375
04:00−18ssw349871 0.0 102453
07:00−21s459761 0.0 102582
10:00−17s5109350 0.0 1024265
13:00−11s599074 0.0 1023416
16:00−8s61089100 0.0 1021615
19:00−8sse51291100 0.0 1020469
22:00−8s51389100 0.0 1018417